weather.gov     
National Weather Service

Terminal Aerodrome Forecast
NWS Homepage
This page is being discontinued on March 12, 2014.
The same data is available at this site. Please update your bookmarks.
Thank you, and we apologize for the inconvenience.
Please send an email to SR-SRH.Webmaster@noaa.gov with any concerns.


Current Version
Previous Version:    01  02  03  04  05  06  07  08  09  10  11  12  13  14  15  16  17  18  19  20  21  22  23  24  25  
[Printable]
985
FTUS46 KSEW 161100
TAFCLM
TAF
KCLM 161120Z 1612/1712 30006KT P6SM BKN200
     FM161500 29008KT P6SM SCT010 BKN120 BKN200
      TEMPO 1615/1618 5SM BR BKN010 BKN120
     FM161800 27007KT P6SM SCT015 BKN120
     FM162200 27014KT P6SM SCT040 BKN120
     FM171000 28008KT P6SM BKN015
      AMD NOT SKED=


U.S. Dept. of Commerce
NOAA National Weather Service
1325 East West Highway
Silver Spring, MD 20910
E-mail: w-nws.webmaster@noaa.gov
Page last modified: May 16, 2007
NATIONAL WEATHER SERVICE: for Safety, for Work, for Fun - FOR LIFE